Flag for Canada Weather past 2 weeks in Surrey, British Columbia, Canada

Now
39 °F

Chilly.


Feels Like: 39 °F
Forecast: 35 / 41 °F
Wind: 1 mph from East

Location: P. Meadows Coastal Station

Current Time: Dec 25, 2014 at 8:33:05 AM

Latest Report: Dec 25, 2014 at 8:00 AM


Visibility: N/A

Pressure: 30.12 "Hg

Humidity: 97%

Dew point: 38 °F

Location of SurreyLocation

Historic Weather in Surrey — Graph

°F

Surrey temperature yesterday

Maximum temperature yesterday: 44 °F (at 1:00 PM)
Minimum temperature yesterday: 35 °F (at 11:00 PM)
Average temperature yesterday: 41 °F

Past Weeks' High & Low Weather Summary

 TemperatureHumidityPressure
High56 °F (Dec 10, 2:00 PM)100% (Dec 11, 3:00 PM)30.39 "Hg (Dec 11, 3:00 PM)
Low27 °F (Dec 15, 6:00 AM)62% (Dec 11, 11:00 PM)29.18 "Hg (Dec 11, 5:00 PM)
Average42 °F93%29.86 "Hg
* Reported Dec 10 7:00 AM — Dec 25 7:00 AM, Surrey, Weather by CustomWeather, © 2014

Note: Actual official high and low records may vary slightly from our data, if they occured in-between our weather recording intervals... More about our weather records

Advertising

Surrey weather history for previous 24 hours

 ConditionsComfort  
Time TempWeatherWind HumidityBarometerVisibility
7:00 AM
Dec 25
39 °FChilly.1 mph98%30.11 "HgN/A
6:00 AM36 °FChilly.No wind100%30.11 "HgN/A
5:00 AM38 °FChilly.1 mph98%30.09 "HgN/A
4:00 AM38 °FChilly.2 mph98%30.09 "HgN/A
3:00 AM38 °FChilly.1 mph99%30.08 "HgN/A
2:00 AM37 °FChilly.No wind100%30.06 "HgN/A
1:00 AM38 °FChilly.1 mph100%30.03 "HgN/A
12:00 AM38 °FChilly.2 mph100%30.02 "HgN/A
11:00 PM
Dec 24
35 °FChilly.1 mph100%30.01 "HgN/A
10:00 PM37 °FChilly.2 mph98%29.99 "HgN/A
9:00 PM40 °FChilly.5 mph96%29.98 "HgN/A
8:00 PM40 °FChilly.2 mph97%29.96 "HgN/A
7:00 PM40 °FChilly.2 mph97%29.94 "HgN/A
6:00 PM38 °FChilly.1 mph100%29.93 "HgN/A
5:00 PM39 °FChilly.1 mph97%29.92 "HgN/A
4:00 PM41 °FQuite cool.1 mph93%29.91 "HgN/A
3:00 PM43 °FQuite cool.1 mph88%29.89 "HgN/A
2:00 PM43 °FQuite cool.5 mph87%29.88 "HgN/A
1:00 PM44 °FQuite cool.1 mph84%29.86 "HgN/A
11:00 AM43 °FQuite cool.2 mph92%29.87 "HgN/A
10:00 AM42 °FQuite cool.No wind88%29.87 "HgN/A
9:00 AM41 °FQuite cool.2 mph95%29.87 "HgN/A
8:00 AM41 °FQuite cool.2 mph94%29.86 "HgN/A
Weather by CustomWeather, © 2014

See weather overviewHow to use our weather pages